Freeland, MI

12:49 PM EDT on July 27, 2016 (GMT -0400)
MBS International

Weather History for KMBS - June, 2013

Change the Weather History Date:

Sunday, June 23, 2013

  Actual Average Record
Temperature  
Mean Temperature 78 °F 69 °F  
Max Temperature 90 °F 80 °F 92 °F (1998)
Min Temperature 65 °F 59 °F 51 °F (2004)
Degree Days  
Heating Degree Days 0    
Month to date heating degree days 53  
Since 1 June heating degree days 53  
Since 1 July heating degree days 6548  
Cooling Degree Days 13    
Month to date cooling degree days 79  
Year to date cooling degree days 153  
Since 1 June cooling degree days 79  
Growing Degree Days 27 (Base 50)    
Moisture  
Dew Point 65 °F    
Average Humidity 68    
Maximum Humidity 93    
Minimum Humidity 43    
Precipitation  
Precipitation 0.00 in 0.10 in 0.47 in (2014)
Month to date precipitation 1.36 2.28  
Year to date precipitation 19.71 13.93  
Snow  
Snow 0.00 in - - ()
Month to date snowfall 0.0  
Since 1 June snowfall 0.0  
Since 1 July snowfall 43.5  
Snow Depth 0.00 in    
Sea Level Pressure  
Sea Level Pressure 29.99 in    
Wind  
Wind Speed 10 mph (SW)    
Max Wind Speed 24 mph    
Max Gust Speed 29 mph    
Visibility 9 miles    
Events      
T = Trace of Precipitation, MM = Missing Value Source: NWS Daily Summary

Daily Weather History Graph

Daily Weather History Graph

Search for Another Location

Airport or City:

Trip Planner

Search our weather history database for the weather conditions in past years. The results will help you decide how hot, cold, wet, or windy it might be!

Date:

Astronomy

Jun. 23, 2013 Rise Set
Actual Time 5:55 AM EDT 9:21 PM EDT
Civil Twilight 5:19 AM EDT 9:57 PM EDT
Nautical Twilight 4:32 AM EDT 10:44 PM EDT
Astronomical Twilight 3:33 AM EDT 11:43 PM EDT
Moon 9:29 PM EDT (6/23) 6:14 AM EDT (6/23)
Length of Visible Light 16h 37m
Length of Day
15h 25m
Full, 100% of the Moon is Illuminated
Jun 23
Full
Jun 30
Last Quarter
Jul 8
New
Jul 15
First Quarter
Jul 22
Full

Hourly Weather History & Observations

Time (EDT) Temp. Heat Index Dew Point Humidity Pressure Visibility Wind Dir Wind Speed Gust Speed Precip Events Conditions
12:53 AM 68.0 °F - 64.0 °F 87% 30.04 in 8.0 mi North 8.1 mph - N/A   Clear
1:53 AM 66.9 °F - 64.0 °F 90% 30.02 in 8.0 mi NE 6.9 mph - N/A   Clear
2:53 AM 66.0 °F - 63.0 °F 90% 30.03 in 7.0 mi NNW 3.5 mph - N/A   Clear
3:53 AM 66.0 °F - 63.0 °F 90% 30.02 in 7.0 mi North 3.5 mph - N/A   Partly Cloudy
4:53 AM 64.9 °F - 62.1 °F 90% 30.02 in 6.0 mi Calm Calm - N/A   Clear
5:53 AM 64.9 °F - 63.0 °F 93% 30.01 in 4.0 mi Calm Calm - N/A   Clear
6:53 AM 66.0 °F - 64.0 °F 93% 30.01 in 4.0 mi Calm Calm - N/A   Clear
7:53 AM 70.0 °F - 64.9 °F 84% 30.02 in 7.0 mi SW 5.8 mph - N/A   Clear
8:53 AM 75.0 °F - 66.9 °F 76% 30.00 in 9.0 mi South 11.5 mph - N/A   Clear
9:53 AM 79.0 °F - 68.0 °F 69% 29.99 in 10.0 mi SSW 15.0 mph - N/A   Clear
10:53 AM 82.0 °F 84.9 °F 68.0 °F 62% 29.99 in 10.0 mi South 17.3 mph 21.9 mph N/A   Clear
11:53 AM 84.0 °F 87.0 °F 68.0 °F 58% 30.00 in 10.0 mi SSW 16.1 mph 23.0 mph N/A   Clear
12:53 PM 86.0 °F 89.4 °F 68.0 °F 55% 30.00 in 10.0 mi WSW 17.3 mph 24.2 mph N/A   Clear
1:53 PM 88.0 °F 90.3 °F 66.0 °F 48% 29.99 in 10.0 mi WSW 17.3 mph 24.2 mph N/A   Clear
2:53 PM 90.0 °F 92.4 °F 66.0 °F 45% 29.98 in 10.0 mi SW 19.6 mph 27.6 mph N/A   Partly Cloudy
3:53 PM 90.0 °F 91.7 °F 64.9 °F 43% 29.97 in 10.0 mi SW 18.4 mph - N/A   Partly Cloudy
4:53 PM 90.0 °F 91.7 °F 64.9 °F 43% 29.96 in 10.0 mi WSW 13.8 mph 24.2 mph N/A   Partly Cloudy
5:53 PM 89.1 °F 91.3 °F 66.0 °F 46% 29.95 in 10.0 mi SW 17.3 mph 23.0 mph N/A   Partly Cloudy
6:53 PM 88.0 °F 89.3 °F 64.0 °F 45% 29.95 in 10.0 mi SW 15.0 mph 20.7 mph N/A   Clear
7:53 PM 87.1 °F 87.8 °F 63.0 °F 44% 29.95 in 10.0 mi SW 10.4 mph - N/A   Clear
8:53 PM 84.0 °F 85.8 °F 64.9 °F 53% 29.93 in 10.0 mi South 9.2 mph - N/A   Clear
9:53 PM 81.0 °F 82.7 °F 64.9 °F 58% 29.96 in 10.0 mi SW 6.9 mph - N/A   Clear
10:53 PM 79.0 °F - 66.0 °F 64% 29.98 in 10.0 mi SW 5.8 mph - N/A   Clear
11:53 PM 78.1 °F - 64.9 °F 64% 29.99 in 10.0 mi SSW 6.9 mph - N/A   Clear